Weather History for Montague, CA

Change the Weather History Date:

Tuesday, February 19, 2013

  Actual Average Record
Temperature  
Mean Temperature 29 °F 40 °F  
Max Temperature 37 °F 52 °F 68 °F (1995)
Min Temperature 20 °F 28 °F 5 °F (1990)
Degree Days  
Heating Degree Days 36 25  
Month to date heating degree days 526 510  
Since 1 July heating degree days 3490 3662  
Cooling Degree Days 0 0  
Month to date cooling degree days 0 0  
Year to date cooling degree days 0 0  
Moisture  
Dew Point 27 °F    
Average Humidity 83    
Maximum Humidity 92    
Minimum Humidity 59    
Precipitation  
Precipitation 0.04 in 0.08 in 0.63 in (1974)
Month to date precipitation 0.26 1.30  
Year to date precipitation 0.97 3.50  
Sea Level Pressure  
Sea Level Pressure 29.74 in    
Wind  
Wind Speed 4 mph (NE)    
Max Wind Speed 16 mph    
Max Gust Speed 18 mph    
Visibility 7 miles    
Events Fog , Snow    
T = Trace of Precipitation, MM = Missing Value Source: NWS Daily Summary

Daily Weather History Graph

Daily Weather History Graph

Search for Another Location

Airport:

Trip Planner

Search our weather history database for the weather conditions in past years. The results will help you decide how hot, cold, wet, or windy it might be!

Date:

Astronomy

Feb. 19, 2013 Rise Set
Actual Time 6:59 AM PST 5:48 PM PST
Civil Twilight 6:31 AM PST 6:16 PM PST
Nautical Twilight 5:58 AM PST 6:49 PM PST
Astronomical Twilight 5:26 AM PST 7:21 PM PST
Moon 12:21 PM PST 2:38 AM PST
Length of Visible Light 11h 45m
Length of Day
10h 49m
Waxing Gibbous, 68% of the Moon is Illuminated
Feb 19
Waxing Gibbous
Feb 25
Full
Mar 4
Last Quarter
Mar 11
New
Mar 19
First Quarter

Hourly Weather History & Observations

Time (PST) Temp. Windchill Dew Point Humidity Pressure Visibility Wind Dir Wind Speed Gust Speed Precip Events Conditions
12:53 AM 21.9 °F 15.7 °F 19.9 °F 92% 29.82 in 10.0 mi SE 4.6 mph - N/A   Clear
1:53 AM 19.9 °F - 18.0 °F 92% 29.79 in 10.0 mi Calm Calm - N/A   Mostly Cloudy
2:53 AM 26.1 °F - 24.1 °F 92% 29.76 in 10.0 mi Calm Calm - N/A   Overcast
3:15 AM 28.4 °F 21.2 °F 24.8 °F 86% 29.69 in 9.0 mi NE 6.9 mph - 0.00 in Snow Light Snow
3:53 AM 28.9 °F 21.9 °F 26.1 °F 89% 29.73 in 10.0 mi NE 6.9 mph - 0.00 in   Mostly Cloudy
4:53 AM 28.9 °F 25.2 °F 26.1 °F 89% 29.70 in 10.0 mi North 3.5 mph - N/A   Overcast
5:53 AM 27.0 °F - 25.0 °F 92% 29.70 in 10.0 mi Calm Calm - N/A   Overcast
6:53 AM 28.0 °F 24.2 °F 25.0 °F 88% 29.68 in 10.0 mi ENE 3.5 mph - 0.00 in   Overcast
7:05 AM 28.4 °F 24.6 °F 26.6 °F 93% 29.62 in 1.8 mi NNW 3.5 mph - 0.00 in Snow Light Snow
7:12 AM 28.4 °F 23.3 °F 26.6 °F 93% 29.62 in 1.5 mi NNW 4.6 mph - 0.00 in Snow Light Snow
7:25 AM 28.4 °F 24.6 °F 26.6 °F 93% 29.62 in 3.0 mi NNE 3.5 mph - 0.00 in Snow Light Snow
7:38 AM 28.4 °F 24.6 °F 26.6 °F 93% 29.62 in 10.0 mi ENE 3.5 mph - 0.00 in   Overcast
7:53 AM 30.0 °F 25.2 °F 27.0 °F 88% 29.70 in 6.0 mi East 4.6 mph - 0.00 in Snow Light Snow
8:01 AM 30.2 °F 26.7 °F 26.6 °F 86% 29.63 in 7.0 mi ENE 3.5 mph - N/A   Overcast
8:09 AM 30.2 °F - 28.4 °F 93% 29.63 in 1.8 mi Calm Calm - 0.00 in Snow Light Snow
8:19 AM 30.2 °F - 28.4 °F 93% 29.63 in 0.5 mi Calm Calm - 0.01 in Fog , Snow Snow
8:28 AM 30.2 °F - 28.4 °F 93% 29.64 in 0.5 mi Calm Calm - 0.02 in Fog , Snow Light Snow
8:42 AM 30.2 °F 26.7 °F 28.4 °F 93% 29.64 in 0.8 mi ESE 3.5 mph - 0.02 in Snow Light Snow
8:49 AM 30.2 °F - 28.4 °F 93% 29.63 in 2.0 mi Calm Calm - 0.02 in Snow Light Snow
8:53 AM 30.0 °F - 28.9 °F 96% 29.71 in 5.0 mi Calm Calm - 0.02 in Snow Light Snow
9:04 AM 30.2 °F 25.4 °F 28.4 °F 93% 29.64 in 10.0 mi ENE 4.6 mph - 0.00 in   Overcast
10:53 AM 35.1 °F - 28.9 °F 78% 29.75 in 7.0 mi Calm Calm - 0.00 in Snow Light Snow
11:43 AM 35.6 °F - 28.4 °F 75% 29.68 in 10.0 mi Calm Calm - 0.00 in   Overcast
11:53 AM 36.0 °F 33.3 °F 28.0 °F 73% 29.77 in 10.0 mi WSW 3.5 mph - 0.00 in   Overcast
12:35 PM 35.6 °F 32.8 °F 30.2 °F 81% 29.68 in 10.0 mi ENE 3.5 mph - N/A   Overcast
12:51 PM 35.6 °F 30.7 °F 28.4 °F 75% 29.68 in 8.0 mi East 5.8 mph - 0.00 in Snow Light Snow
12:53 PM 35.1 °F 30.1 °F 28.9 °F 78% 29.77 in 9.0 mi East 5.8 mph - 0.00 in   Overcast
1:19 PM 35.6 °F - 28.4 °F 75% 29.68 in 1.8 mi Calm Calm - 0.01 in Snow Light Snow
1:27 PM 35.6 °F 32.8 °F 28.4 °F 75% 29.69 in 2.0 mi Variable 3.5 mph - 0.02 in Snow Light Snow
1:34 PM 35.6 °F - 28.4 °F 75% 29.69 in 5.0 mi Calm Calm - 0.02 in Snow Light Snow
1:53 PM 35.1 °F 31.0 °F 30.0 °F 82% 29.78 in 9.0 mi SW 4.6 mph - 0.02 in   Overcast
2:53 PM 36.0 °F - 28.9 °F 76% 29.78 in 10.0 mi Calm Calm - N/A   Overcast
4:29 PM 37.4 °F 32.1 °F 26.6 °F 65% 29.72 in 10.0 mi NNW 6.9 mph - N/A   Overcast
4:53 PM 37.0 °F 29.8 °F 25.0 °F 62% 29.80 in 10.0 mi North 10.4 mph - N/A   Overcast
5:53 PM 36.0 °F 26.7 °F 25.0 °F 64% 29.83 in 10.0 mi North 15.0 mph - N/A   Overcast
6:53 PM 35.1 °F 26.4 °F 26.1 °F 70% 29.86 in 10.0 mi NNE 12.7 mph - N/A   Mostly Cloudy
7:53 PM 33.1 °F - 26.1 °F 75% 29.88 in 10.0 mi Calm Calm - N/A   Mostly Cloudy
8:53 PM 33.1 °F - 26.1 °F 75% 29.91 in 10.0 mi Calm Calm - N/A   Scattered Clouds
9:53 PM 34.0 °F 29.8 °F 26.1 °F 73% 29.94 in 10.0 mi North 4.6 mph - N/A   Mostly Cloudy
10:53 PM 30.9 °F 26.2 °F 25.0 °F 79% 29.97 in 10.0 mi North 4.6 mph - N/A   Overcast
11:13 PM 30.2 °F 25.4 °F 26.6 °F 86% 29.90 in 10.0 mi NNE 4.6 mph - N/A   Overcast
11:53 PM 32.0 °F - 26.1 °F 79% 29.99 in 10.0 mi North - - N/A   Mostly Cloudy